ONEWEB-0055 (45443 NORAD) Tracking and Keplerian Element Data

This shows tracking and keplerian element data for the satellite.

Feedback or suggestion? Click here.




ElementValue
Catalog45443
NameONEWEB-0055
Epoch Orbit176
Epoch Day193.91667824
Epoch Year2020
RAAN102.3449
Inclination87.5687
Eccentricity0.0024941
Argument of Perigee243.2637
Mean Anonmoly98.5111
Mean Motion14.90208635
Decay Rate-0.0005107
L11 45443U 20020V 20193.91667824 -.00051070 00000-0 -52872-2 0 9993
L22 45443 87.5687 102.3449 0024941 243.2637 98.5111 14.90208635 1760

Live tracking and technical data element details for ONEWEB-0055 (NORAD 45443). ONEWEB-0055 can be tracked NOW for your location showing map with azimuth and elevation plus other details from your city location.

Track the satellite on the map from your city or location and see movement details for azimuth, elevation, latitude, longitude, range, height, and movement on the map or in text.







IsCatalogInMostPopularTable: catalog: 45443, numindb: 21
Update: records affected: 1



GetName: 45443 ONEWEB-0055

Hit Count: updated at: Mon, 13 Jul 2020 04:09:35 GMT